Starlink 5269

operational
NORAD ID: 54161 Int'l Des: 2022-141 Owner: SPXS Country: US Constellation: starlink
LEOCIRCULAR

About Starlink 5269

Description loading...

Live Position

Loading 3D Globe...

Upcoming Passes

Altitude History

Altitude vs Time

uPlot chart will show altitude changes over time

Two-Line Element Set

1 54161U 22141E 25303.84509791 .00000291 00000-0 36351-4 0 9997
2 54161 53.2178 237.1231 0001423 94.1261 265.9894 15.08834752166118
Epoch: Oct 30, 2025 • Age: 5 hours

Current Status

Altitude 539.9 km
Velocity 7.60 km/s
Sub-Earth Point 20.81°N, 164.48°W
Launch Date Oct 28, 2022
Age 3 years
Type internet

Technical Details

Classification Payload
Mass 305.00 kg
Dry Mass 290.00 kg
Total Mass 305.00 kg
Length 0.20 m
Diameter 2.80 m
Span 9.00 m
Shape Box + pan
Manufacturer SPXS
Bus Type Starlink
Phase Status In Orbit
Owner/State SPXS/US

Large Constellations

Loading constellations...